Wetterdaten: Donnerstag, 13.06.2013
Datum Zeit Temperatur Luftfeuchte Luftdruck Regen Wind Richtung Richtung Sonnenschein ET UV Solar Taupunkt Windchill Windben
13.06.2013 00:00 16,6 C 85 % 1017,5 hPa 0,0 l/m 0,1 km/h (0 Bft) SW 218 0 min 0,000 mm 0,0 UV-I 0 W/m 14,1 C 16,6 C 1,6 km/h (1 Bft)
13.06.2013 00:05 16,6 C 84 % 1017,6 hPa 0,0 l/m 0,0 km/h (0 Bft) SW 218 0 min 0,000 mm 0,0 UV-I 0 W/m 13,9 C 16,6 C 1,6 km/h (1 Bft)
13.06.2013 00:10 16,5 C 84 % 1017,5 hPa 0,0 l/m 0,0 km/h (0 Bft) SW 218 0 min 0,000 mm 0,0 UV-I 0 W/m 13,8 C 16,5 C 0,0 km/h (0 Bft)
13.06.2013 00:15 16,4 C 84 % 1017,5 hPa 0,0 l/m 0,0 km/h (0 Bft) SW 218 0 min 0,000 mm 0,0 UV-I 0 W/m 13,7 C 16,4 C 0,0 km/h (0 Bft)
13.06.2013 00:20 16,4 C 85 % 1017,5 hPa 0,0 l/m 0,0 km/h (0 Bft) SW 218 0 min 0,000 mm 0,0 UV-I 0 W/m 13,9 C 16,4 C 0,0 km/h (0 Bft)
13.06.2013 00:25 16,4 C 85 % 1017,6 hPa 0,0 l/m 0,0 km/h (0 Bft) SW 218 0 min 0,000 mm 0,0 UV-I 0 W/m 13,9 C 16,4 C 0,0 km/h (0 Bft)
13.06.2013 00:30 16,4 C 85 % 1017,6 hPa 0,0 l/m 0,0 km/h (0 Bft) SW 218 0 min 0,000 mm 0,0 UV-I 0 W/m 13,9 C 16,4 C 0,0 km/h (0 Bft)
13.06.2013 00:35 16,4 C 85 % 1017,6 hPa 0,0 l/m 0,0 km/h (0 Bft) SW 218 0 min 0,000 mm 0,0 UV-I 0 W/m 13,9 C 16,4 C 0,0 km/h (0 Bft)
13.06.2013 00:40 16,4 C 85 % 1017,5 hPa 0,0 l/m 0,0 km/h (0 Bft) SW 218 0 min 0,000 mm 0,0 UV-I 0 W/m 13,9 C 16,4 C 0,0 km/h (0 Bft)
13.06.2013 00:45 16,3 C 86 % 1017,4 hPa 0,0 l/m 0,0 km/h (0 Bft) SW 218 0 min 0,000 mm 0,0 UV-I 0 W/m 14,0 C 16,3 C 0,0 km/h (0 Bft)
13.06.2013 00:50 16,4 C 86 % 1017,4 hPa 0,0 l/m 0,0 km/h (0 Bft) SW 218 0 min 0,000 mm 0,0 UV-I 0 W/m 14,1 C 16,4 C 1,6 km/h (1 Bft)
13.06.2013 00:55 16,4 C 86 % 1017,3 hPa 0,0 l/m 0,1 km/h (0 Bft) SW 218 0 min 0,000 mm 0,0 UV-I 0 W/m 14,1 C 16,4 C 1,6 km/h (1 Bft)
13.06.2013 01:00 16,4 C 86 % 1017,3 hPa 0,0 l/m 0,0 km/h (0 Bft) SW 218 0 min 0,000 mm 0,0 UV-I 0 W/m 14,1 C 16,4 C 0,0 km/h (0 Bft)
13.06.2013 01:05 16,5 C 86 % 1017,2 hPa 0,0 l/m 0,0 km/h (0 Bft) SW 218 0 min 0,000 mm 0,0 UV-I 0 W/m 14,1 C 16,5 C 1,6 km/h (1 Bft)
13.06.2013 01:10 16,6 C 86 % 1017,1 hPa 0,0 l/m 0,4 km/h (0 Bft) W-NW 300 0 min 0,000 mm 0,0 UV-I 0 W/m 14,2 C 16,6 C 3,2 km/h (1 Bft)
13.06.2013 01:15 16,7 C 85 % 1017,2 hPa 0,0 l/m 0,3 km/h (0 Bft) W-NW 299 0 min 0,000 mm 0,0 UV-I 0 W/m 14,2 C 16,7 C 3,2 km/h (1 Bft)
13.06.2013 01:20 16,9 C 84 % 1017,2 hPa 0,0 l/m 1,3 km/h (1 Bft) W-NW 286 0 min 0,000 mm 0,0 UV-I 0 W/m 14,2 C 16,9 C 4,8 km/h (1 Bft)
13.06.2013 01:25 17,2 C 83 % 1017,3 hPa 0,0 l/m 3,3 km/h (1 Bft) W 259 0 min 0,000 mm 0,0 UV-I 0 W/m 14,3 C 17,2 C 8,0 km/h (2 Bft)
13.06.2013 01:30 17,4 C 82 % 1017,2 hPa 0,0 l/m 2,0 km/h (1 Bft) W-NW 286 0 min 0,000 mm 0,0 UV-I 0 W/m 14,3 C 17,4 C 4,8 km/h (1 Bft)
13.06.2013 01:35 17,5 C 82 % 1017,2 hPa 0,0 l/m 2,7 km/h (1 Bft) W 272 0 min 0,000 mm 0,0 UV-I 0 W/m 14,4 C 17,5 C 6,4 km/h (2 Bft)
13.06.2013 01:40 17,5 C 82 % 1017,1 hPa 0,0 l/m 2,5 km/h (1 Bft) SW 234 0 min 0,000 mm 0,0 UV-I 0 W/m 14,4 C 17,5 C 9,7 km/h (2 Bft)
13.06.2013 01:45 17,5 C 81 % 1017,0 hPa 0,0 l/m 1,3 km/h (1 Bft) SW 229 0 min 0,000 mm 0,0 UV-I 0 W/m 14,2 C 17,5 C 4,8 km/h (1 Bft)
13.06.2013 01:50 17,4 C 82 % 1017,0 hPa 0,0 l/m 1,2 km/h (1 Bft) W-SW 257 0 min 0,000 mm 0,0 UV-I 0 W/m 14,3 C 17,4 C 4,8 km/h (1 Bft)
13.06.2013 01:55 17,4 C 82 % 1017,0 hPa 0,0 l/m 1,8 km/h (1 Bft) S-SW 199 0 min 0,000 mm 0,0 UV-I 0 W/m 14,3 C 17,4 C 6,4 km/h (2 Bft)
13.06.2013 02:00 17,5 C 82 % 1016,9 hPa 0,0 l/m 3,9 km/h (1 Bft) S-SW 193 0 min 0,000 mm 0,0 UV-I 0 W/m 14,4 C 17,5 C 14,5 km/h (3 Bft)
13.06.2013 02:05 17,6 C 81 % 1016,9 hPa 0,0 l/m 3,1 km/h (1 Bft) S-SW 209 0 min 0,025 mm 0,0 UV-I 0 W/m 14,3 C 17,6 C 8,0 km/h (2 Bft)
13.06.2013 02:10 17,7 C 81 % 1016,9 hPa 0,0 l/m 2,6 km/h (1 Bft) S 181 0 min 0,000 mm 0,0 UV-I 0 W/m 14,4 C 17,7 C 8,0 km/h (2 Bft)
13.06.2013 02:15 17,7 C 81 % 1016,9 hPa 0,0 l/m 1,7 km/h (1 Bft) S-SO 163 0 min 0,000 mm 0,0 UV-I 0 W/m 14,4 C 17,7 C 6,4 km/h (2 Bft)
13.06.2013 02:20 17,7 C 81 % 1016,9 hPa 0,0 l/m 1,0 km/h (0 Bft) S-SW 211 0 min 0,000 mm 0,0 UV-I 0 W/m 14,4 C 17,7 C 4,8 km/h (1 Bft)
13.06.2013 02:25 17,6 C 81 % 1016,9 hPa 0,0 l/m 0,4 km/h (0 Bft) W 266 0 min 0,000 mm 0,0 UV-I 0 W/m 14,3 C 17,6 C 4,8 km/h (1 Bft)
13.06.2013 02:30 17,6 C 81 % 1016,8 hPa 0,0 l/m 2,6 km/h (1 Bft) S-SW 194 0 min 0,000 mm 0,0 UV-I 0 W/m 14,3 C 17,6 C 9,7 km/h (2 Bft)
13.06.2013 02:35 17,6 C 81 % 1016,8 hPa 0,0 l/m 0,4 km/h (0 Bft) SW 215 0 min 0,000 mm 0,0 UV-I 0 W/m 14,3 C 17,6 C 6,4 km/h (2 Bft)
13.06.2013 02:40 17,6 C 81 % 1016,8 hPa 0,0 l/m 0,1 km/h (0 Bft) SW 215 0 min 0,000 mm 0,0 UV-I 0 W/m 14,3 C 17,6 C 1,6 km/h (1 Bft)
13.06.2013 02:45 17,6 C 82 % 1016,8 hPa 0,0 l/m 0,1 km/h (0 Bft) SW 215 0 min 0,000 mm 0,0 UV-I 0 W/m 14,5 C 17,6 C 1,6 km/h (1 Bft)
13.06.2013 02:50 17,5 C 82 % 1016,7 hPa 0,0 l/m 0,3 km/h (0 Bft) SW 215 0 min 0,000 mm 0,0 UV-I 0 W/m 14,4 C 17,5 C 3,2 km/h (1 Bft)
13.06.2013 02:55 17,5 C 82 % 1016,7 hPa 0,0 l/m 0,4 km/h (0 Bft) SO 138 0 min 0,000 mm 0,0 UV-I 0 W/m 14,4 C 17,5 C 3,2 km/h (1 Bft)
13.06.2013 03:00 17,4 C 82 % 1016,7 hPa 0,0 l/m 0,2 km/h (0 Bft) SO 138 0 min 0,000 mm 0,0 UV-I 0 W/m 14,3 C 17,4 C 1,6 km/h (1 Bft)
13.06.2013 03:05 17,4 C 82 % 1016,6 hPa 0,0 l/m 0,0 km/h (0 Bft) SO 138 0 min 0,026 mm 0,0 UV-I 0 W/m 14,3 C 17,4 C 0,0 km/h (0 Bft)
13.06.2013 03:10 17,4 C 82 % 1016,6 hPa 0,0 l/m 0,1 km/h (0 Bft) SO 140 0 min 0,000 mm 0,0 UV-I 0 W/m 14,3 C 17,4 C 1,6 km/h (1 Bft)
13.06.2013 03:15 17,4 C 82 % 1016,6 hPa 0,0 l/m 0,1 km/h (0 Bft) SO 140 0 min 0,000 mm 0,0 UV-I 0 W/m 14,3 C 17,4 C 1,6 km/h (1 Bft)
13.06.2013 03:20 17,3 C 82 % 1016,5 hPa 0,0 l/m 0,0 km/h (0 Bft) SO 140 0 min 0,000 mm 0,0 UV-I 0 W/m 14,2 C 17,3 C 0,0 km/h (0 Bft)
13.06.2013 03:25 17,3 C 82 % 1016,6 hPa 0,0 l/m 0,0 km/h (0 Bft) SO 140 0 min 0,000 mm 0,0 UV-I 0 W/m 14,2 C 17,3 C 1,6 km/h (1 Bft)
13.06.2013 03:30 17,3 C 82 % 1016,6 hPa 0,0 l/m 0,1 km/h (0 Bft) SO 140 0 min 0,000 mm 0,0 UV-I 0 W/m 14,2 C 17,3 C 1,6 km/h (1 Bft)
13.06.2013 03:35 17,3 C 82 % 1016,6 hPa 0,0 l/m 0,1 km/h (0 Bft) SO 140 0 min 0,000 mm 0,0 UV-I 0 W/m 14,2 C 17,3 C 1,6 km/h (1 Bft)
13.06.2013 03:40 17,3 C 83 % 1016,6 hPa 0,0 l/m 0,1 km/h (0 Bft) SO 140 0 min 0,000 mm 0,0 UV-I 0 W/m 14,4 C 17,3 C 1,6 km/h (1 Bft)
13.06.2013 03:45 17,2 C 83 % 1016,5 hPa 0,0 l/m 1,0 km/h (0 Bft) O 90 0 min 0,000 mm 0,0 UV-I 0 W/m 14,3 C 17,2 C 4,8 km/h (1 Bft)
13.06.2013 03:50 17,2 C 83 % 1016,4 hPa 0,0 l/m 0,2 km/h (0 Bft) O 90 0 min 0,000 mm 0,0 UV-I 0 W/m 14,3 C 17,2 C 1,6 km/h (1 Bft)
13.06.2013 03:55 17,2 C 83 % 1016,4 hPa 0,0 l/m 0,1 km/h (0 Bft) O 90 0 min 0,000 mm 0,0 UV-I 0 W/m 14,3 C 17,2 C 1,6 km/h (1 Bft)
13.06.2013 04:00 17,2 C 84 % 1016,4 hPa 0,0 l/m 0,3 km/h (0 Bft) O 90 0 min 0,000 mm 0,0 UV-I 0 W/m 14,5 C 17,2 C 3,2 km/h (1 Bft)
13.06.2013 04:05 17,2 C 84 % 1016,3 hPa 0,0 l/m 2,0 km/h (1 Bft) O 91 0 min 0,025 mm 0,0 UV-I 0 W/m 14,5 C 17,2 C 8,0 km/h (2 Bft)
13.06.2013 04:10 17,2 C 84 % 1016,3 hPa 0,0 l/m 0,4 km/h (0 Bft) S-SO 151 0 min 0,000 mm 0,0 UV-I 0 W/m 14,5 C 17,2 C 3,2 km/h (1 Bft)
13.06.2013 04:15 17,3 C 84 % 1016,3 hPa 0,0 l/m 0,3 km/h (0 Bft) S-SO 161 0 min 0,000 mm 0,0 UV-I 0 W/m 14,6 C 17,3 C 1,6 km/h (1 Bft)
13.06.2013 04:20 17,3 C 84 % 1016,4 hPa 0,0 l/m 0,0 km/h (0 Bft) S-SO 161 0 min 0,000 mm 0,0 UV-I 0 W/m 14,6 C 17,3 C 1,6 km/h (1 Bft)
13.06.2013 04:25 17,3 C 83 % 1016,3 hPa 0,0 l/m 0,0 km/h (0 Bft) S-SO 161 0 min 0,000 mm 0,0 UV-I 0 W/m 14,4 C 17,3 C 1,6 km/h (1 Bft)
13.06.2013 04:30 17,2 C 83 % 1016,4 hPa 0,0 l/m 0,1 km/h (0 Bft) S-SO 161 0 min 0,000 mm 0,0 UV-I 0 W/m 14,3 C 17,2 C 1,6 km/h (1 Bft)
13.06.2013 04:35 17,1 C 83 % 1016,4 hPa 0,0 l/m 0,0 km/h (0 Bft) S-SO 161 0 min 0,000 mm 0,0 UV-I 0 W/m 14,2 C 17,1 C 1,6 km/h (1 Bft)
13.06.2013 04:40 17,0 C 83 % 1016,4 hPa 0,0 l/m 0,4 km/h (0 Bft) S-SO 161 0 min 0,000 mm 0,0 UV-I 0 W/m 14,1 C 17,0 C 3,2 km/h (1 Bft)
13.06.2013 04:45 16,8 C 84 % 1016,4 hPa 0,0 l/m 0,0 km/h (0 Bft) S-SO 161 0 min 0,000 mm 0,0 UV-I 0 W/m 14,1 C 16,8 C 1,6 km/h (1 Bft)
13.06.2013 04:50 16,7 C 84 % 1016,4 hPa 0,0 l/m 0,0 km/h (0 Bft) S-SO 161 0 min 0,000 mm 0,0 UV-I 0 W/m 14,0 C 16,7 C 1,6 km/h (1 Bft)
13.06.2013 04:55 16,7 C 85 % 1016,3 hPa 0,0 l/m 0,3 km/h (0 Bft) O-NO 58 0 min 0,000 mm 0,0 UV-I 0 W/m 14,2 C 16,7 C 4,8 km/h (1 Bft)
13.06.2013 05:00 16,6 C 86 % 1016,3 hPa 0,0 l/m 0,5 km/h (0 Bft) O-SO 104 0 min 0,000 mm 0,0 UV-I 0 W/m 14,2 C 16,6 C 9,7 km/h (2 Bft)
13.06.2013 05:05 16,4 C 85 % 1016,3 hPa 0,0 l/m 0,1 km/h (0 Bft) O-SO 104 0 min 0,026 mm 0,0 UV-I 0 W/m 13,9 C 16,4 C 1,6 km/h (1 Bft)
13.06.2013 05:10 16,3 C 85 % 1016,3 hPa 0,0 l/m 0,4 km/h (0 Bft) O-SO 104 0 min 0,000 mm 0,0 UV-I 0 W/m 13,8 C 16,3 C 3,2 km/h (1 Bft)
13.06.2013 05:15 16,2 C 86 % 1016,3 hPa 0,0 l/m 0,3 km/h (0 Bft) O-SO 104 0 min 0,000 mm 0,0 UV-I 0 W/m 13,9 C 16,2 C 1,6 km/h (1 Bft)
13.06.2013 05:20 16,1 C 86 % 1016,3 hPa 0,0 l/m 0,0 km/h (0 Bft) O-SO 104 0 min 0,000 mm 0,0 UV-I 0 W/m 13,8 C 16,1 C 0,0 km/h (0 Bft)
13.06.2013 05:25 15,9 C 86 % 1016,2 hPa 0,0 l/m 1,3 km/h (1 Bft) N-NO 21 0 min 0,000 mm 0,0 UV-I 5 W/m 13,6 C 15,9 C 3,2 km/h (1 Bft)
13.06.2013 05:30 15,8 C 87 % 1016,3 hPa 0,0 l/m 0,6 km/h (0 Bft) N-NO 21 0 min 0,000 mm 0,0 UV-I 7 W/m 13,6 C 15,8 C 4,8 km/h (1 Bft)
13.06.2013 05:35 15,7 C 88 % 1016,3 hPa 0,0 l/m 0,1 km/h (0 Bft) N-NO 21 0 min 0,000 mm 0,0 UV-I 11 W/m 13,7 C 15,7 C 1,6 km/h (1 Bft)
13.06.2013 05:40 15,7 C 88 % 1016,3 hPa 0,0 l/m 0,4 km/h (0 Bft) N-NO 21 0 min 0,000 mm 0,0 UV-I 14 W/m 13,7 C 15,7 C 3,2 km/h (1 Bft)
13.06.2013 05:45 15,7 C 89 % 1016,4 hPa 0,0 l/m 0,2 km/h (0 Bft) N-NO 21 0 min 0,000 mm 0,0 UV-I 16 W/m 13,9 C 15,7 C 3,2 km/h (1 Bft)
13.06.2013 05:50 15,8 C 89 % 1016,3 hPa 0,0 l/m 0,7 km/h (0 Bft) N 9 0 min 0,000 mm 0,0 UV-I 21 W/m 14,0 C 15,8 C 4,8 km/h (1 Bft)
13.06.2013 05:55 15,9 C 89 % 1016,4 hPa 0,0 l/m 0,0 km/h (0 Bft) N 9 0 min 0,000 mm 0,0 UV-I 23 W/m 14,1 C 15,9 C 0,0 km/h (0 Bft)
13.06.2013 06:00 15,9 C 89 % 1016,3 hPa 0,0 l/m 0,8 km/h (0 Bft) N 9 0 min 0,000 mm 0,0 UV-I 26 W/m 14,1 C 15,9 C 3,2 km/h (1 Bft)
13.06.2013 06:05 16,1 C 89 % 1016,3 hPa 0,0 l/m 0,9 km/h (0 Bft) N-NO 24 0 min 0,000 mm 0,0 UV-I 28 W/m 14,3 C 16,1 C 3,2 km/h (1 Bft)
13.06.2013 06:10 16,2 C 89 % 1016,2 hPa 0,0 l/m 0,4 km/h (0 Bft) N-NW 342 0 min 0,000 mm 0,0 UV-I 32 W/m 14,4 C 16,2 C 3,2 km/h (1 Bft)
13.06.2013 06:15 16,3 C 88 % 1016,2 hPa 0,0 l/m 0,8 km/h (0 Bft) SW 232 0 min 0,000 mm 0,0 UV-I 46 W/m 14,3 C 16,3 C 6,4 km/h (2 Bft)
13.06.2013 06:20 16,5 C 88 % 1016,3 hPa 0,0 l/m 2,4 km/h (1 Bft) SW 219 0 min 0,000 mm 0,0 UV-I 49 W/m 14,5 C 16,5 C 8,0 km/h (2 Bft)
13.06.2013 06:25 16,7 C 87 % 1016,3 hPa 0,0 l/m 1,4 km/h (1 Bft) S 178 0 min 0,000 mm 0,0 UV-I 58 W/m 14,5 C 16,7 C 9,7 km/h (2 Bft)
13.06.2013 06:30 16,8 C 87 % 1016,4 hPa 0,0 l/m 3,3 km/h (1 Bft) W 279 0 min 0,000 mm 0,0 UV-I 70 W/m 14,6 C 16,8 C 8,0 km/h (2 Bft)
13.06.2013 06:35 16,9 C 86 % 1016,4 hPa 0,0 l/m 2,3 km/h (1 Bft) W-SW 238 0 min 0,000 mm 0,0 UV-I 81 W/m 14,5 C 16,9 C 8,0 km/h (2 Bft)
13.06.2013 06:40 17,1 C 86 % 1016,3 hPa 0,0 l/m 3,1 km/h (1 Bft) S-SW 199 0 min 0,000 mm 0,0 UV-I 86 W/m 14,7 C 17,1 C 6,4 km/h (2 Bft)
13.06.2013 06:45 17,2 C 86 % 1016,3 hPa 0,0 l/m 4,0 km/h (1 Bft) W-SW 245 0 min 0,000 mm 0,0 UV-I 44 W/m 14,8 C 17,2 C 12,9 km/h (3 Bft)
13.06.2013 06:50 17,3 C 86 % 1016,2 hPa 0,0 l/m 3,2 km/h (1 Bft) W-SW 251 0 min 0,000 mm 0,0 UV-I 33 W/m 14,9 C 17,3 C 9,7 km/h (2 Bft)
13.06.2013 06:55 17,4 C 85 % 1016,3 hPa 0,0 l/m 4,3 km/h (1 Bft) W 259 0 min 0,000 mm 0,0 UV-I 26 W/m 14,8 C 17,4 C 11,3 km/h (2 Bft)
13.06.2013 07:00 17,4 C 85 % 1016,3 hPa 0,0 l/m 4,4 km/h (1 Bft) W 267 0 min 0,000 mm 0,0 UV-I 28 W/m 14,8 C 17,4 C 8,0 km/h (2 Bft)
13.06.2013 07:05 17,5 C 85 % 1016,3 hPa 0,0 l/m 3,1 km/h (1 Bft) W-SW 246 0 min 0,025 mm 0,0 UV-I 28 W/m 14,9 C 17,5 C 8,0 km/h (2 Bft)
13.06.2013 07:10 17,5 C 85 % 1016,3 hPa 0,0 l/m 2,6 km/h (1 Bft) W 265 0 min 0,000 mm 0,0 UV-I 23 W/m 14,9 C 17,5 C 8,0 km/h (2 Bft)
13.06.2013 07:15 17,5 C 85 % 1016,2 hPa 0,0 l/m 1,9 km/h (1 Bft) W 273 0 min 0,000 mm 0,0 UV-I 35 W/m 14,9 C 17,5 C 6,4 km/h (2 Bft)
13.06.2013 07:20 17,5 C 85 % 1016,2 hPa 0,0 l/m 1,5 km/h (1 Bft) W-SW 251 0 min 0,000 mm 0,0 UV-I 33 W/m 14,9 C 17,5 C 4,8 km/h (1 Bft)
13.06.2013 07:25 17,6 C 85 % 1016,1 hPa 0,0 l/m 1,5 km/h (1 Bft) SW 234 0 min 0,000 mm 0,0 UV-I 46 W/m 15,0 C 17,6 C 4,8 km/h (1 Bft)
13.06.2013 07:30 17,6 C 84 % 1016,2 hPa 0,0 l/m 1,0 km/h (0 Bft) S-SO 162 0 min 0,000 mm 0,0 UV-I 23 W/m 14,9 C 17,6 C 6,4 km/h (2 Bft)
13.06.2013 07:35 17,6 C 85 % 1016,3 hPa 0,0 l/m 0,2 km/h (0 Bft) S 174 0 min 0,000 mm 0,0 UV-I 32 W/m 15,0 C 17,6 C 1,6 km/h (1 Bft)
13.06.2013 07:40 17,6 C 84 % 1016,3 hPa 0,0 l/m 6,0 km/h (2 Bft) S 184 0 min 0,000 mm 0,0 UV-I 49 W/m 14,9 C 17,6 C 11,3 km/h (2 Bft)
13.06.2013 07:45 17,6 C 84 % 1016,4 hPa 0,0 l/m 6,3 km/h (2 Bft) S-SW 208 0 min 0,000 mm 0,0 UV-I 67 W/m 14,9 C 17,6 C 12,9 km/h (3 Bft)
13.06.2013 07:50 17,6 C 84 % 1016,4 hPa 0,0 l/m 4,2 km/h (1 Bft) W-SW 252 0 min 0,000 mm 0,0 UV-I 107 W/m 14,9 C 17,6 C 11,3 km/h (2 Bft)
13.06.2013 07:55 17,7 C 84 % 1016,4 hPa 0,0 l/m 2,2 km/h (1 Bft) SW 232 0 min 0,000 mm 0,6 UV-I 167 W/m 15,0 C 17,7 C 8,0 km/h (2 Bft)
13.06.2013 08:00 17,8 C 84 % 1016,4 hPa 0,0 l/m 2,9 km/h (1 Bft) W-SW 250 0 min 0,000 mm 0,6 UV-I 144 W/m 15,1 C 17,8 C 6,4 km/h (2 Bft)
13.06.2013 08:05 17,9 C 83 % 1016,4 hPa 0,0 l/m 5,3 km/h (1 Bft) W-SW 255 0 min 0,051 mm 0,6 UV-I 105 W/m 15,0 C 17,9 C 9,7 km/h (2 Bft)
13.06.2013 08:10 17,9 C 83 % 1016,4 hPa 0,0 l/m 5,6 km/h (1 Bft) W-NW 284 0 min 0,000 mm 0,5 UV-I 116 W/m 15,0 C 17,9 C 11,3 km/h (2 Bft)
13.06.2013 08:15 17,9 C 83 % 1016,4 hPa 0,0 l/m 5,1 km/h (1 Bft) W 279 0 min 0,000 mm 0,6 UV-I 134 W/m 15,0 C 17,9 C 9,7 km/h (2 Bft)
13.06.2013 08:20 18,1 C 83 % 1016,4 hPa 0,0 l/m 4,9 km/h (1 Bft) SW 215 0 min 0,000 mm 0,6 UV-I 158 W/m 15,2 C 18,1 C 11,3 km/h (2 Bft)
13.06.2013 08:25 18,1 C 83 % 1016,4 hPa 0,0 l/m 4,6 km/h (1 Bft) S-SW 203 0 min 0,000 mm 0,5 UV-I 86 W/m 15,2 C 18,1 C 9,7 km/h (2 Bft)
13.06.2013 08:30 18,2 C 84 % 1016,4 hPa 0,0 l/m 3,9 km/h (1 Bft) W-SW 240 0 min 0,000 mm 0,6 UV-I 90 W/m 15,4 C 18,2 C 11,3 km/h (2 Bft)
13.06.2013 08:35 18,2 C 84 % 1016,4 hPa 0,0 l/m 3,0 km/h (1 Bft) SW 229 0 min 0,000 mm 0,8 UV-I 141 W/m 15,4 C 18,2 C 8,0 km/h (2 Bft)
13.06.2013 08:40 18,2 C 84 % 1016,4 hPa 0,0 l/m 3,0 km/h (1 Bft) W-SW 256 0 min 0,000 mm 0,7 UV-I 132 W/m 15,4 C 18,2 C 8,0 km/h (2 Bft)
13.06.2013 08:45 18,2 C 83 % 1016,3 hPa 0,0 l/m 4,2 km/h (1 Bft) W-SW 254 0 min 0,000 mm 1,0 UV-I 188 W/m 15,3 C 18,2 C 8,0 km/h (2 Bft)
13.06.2013 08:50 18,2 C 83 % 1016,2 hPa 0,0 l/m 3,0 km/h (1 Bft) S-SW 195 5 min 0,000 mm 1,4 UV-I 281 W/m 15,3 C 18,2 C 12,9 km/h (3 Bft)
13.06.2013 08:55 18,4 C 83 % 1016,2 hPa 0,0 l/m 2,5 km/h (1 Bft) S 189 0 min 0,000 mm 1,5 UV-I 276 W/m 15,5 C 18,4 C 6,4 km/h (2 Bft)
13.06.2013 09:00 18,8 C 82 % 1016,2 hPa 0,0 l/m 3,2 km/h (1 Bft) S-SW 213 5 min 0,000 mm 1,9 UV-I 385 W/m 15,7 C 18,8 C 9,7 km/h (2 Bft)
13.06.2013 09:05 19,1 C 81 % 1016,1 hPa 0,0 l/m 3,5 km/h (1 Bft) W 280 5 min 0,127 mm 1,9 UV-I 366 W/m 15,8 C 19,1 C 8,0 km/h (2 Bft)
13.06.2013 09:10 19,3 C 81 % 1016,0 hPa 0,0 l/m 2,4 km/h (1 Bft) W 270 0 min 0,000 mm 1,5 UV-I 251 W/m 16,0 C 19,3 C 6,4 km/h (2 Bft)
13.06.2013 09:15 19,4 C 80 % 1015,9 hPa 0,0 l/m 4,4 km/h (1 Bft) W-SW 250 0 min 0,000 mm 1,3 UV-I 190 W/m 15,9 C 19,4 C 11,3 km/h (2 Bft)
13.06.2013 09:20 19,4 C 79 % 1015,9 hPa 0,0 l/m 5,2 km/h (1 Bft) W-SW 257 0 min 0,000 mm 1,3 UV-I 186 W/m 15,7 C 19,4 C 9,7 km/h (2 Bft)
13.06.2013 09:25 19,5 C 79 % 1015,8 hPa 0,0 l/m 4,4 km/h (1 Bft) S-SW 201 0 min 0,000 mm 1,4 UV-I 195 W/m 15,8 C 19,5 C 11,3 km/h (2 Bft)
13.06.2013 09:30 19,7 C 78 % 1015,8 hPa 0,0 l/m 5,4 km/h (1 Bft) SO 133 5 min 0,000 mm 2,2 UV-I 334 W/m 15,8 C 19,7 C 11,3 km/h (2 Bft)
13.06.2013 09:35 20,0 C 77 % 1015,8 hPa 0,0 l/m 5,1 km/h (1 Bft) S-SW 209 5 min 0,000 mm 3,1 UV-I 334 W/m 15,8 C 20,0 C 9,7 km/h (2 Bft)
13.06.2013 09:40 20,4 C 76 % 1015,7 hPa 0,0 l/m 4,9 km/h (1 Bft) S-SW 193 5 min 0,000 mm 2,5 UV-I 403 W/m 16,0 C 20,4 C 11,3 km/h (2 Bft)
13.06.2013 09:45 20,6 C 75 % 1015,6 hPa 0,0 l/m 4,7 km/h (1 Bft) S 186 5 min 0,000 mm 3,3 UV-I 659 W/m 16,0 C 20,6 C 11,3 km/h (2 Bft)
13.06.2013 09:50 20,7 C 74 % 1015,6 hPa 0,0 l/m 8,1 km/h (2 Bft) W 269 5 min 0,000 mm 3,0 UV-I 513 W/m 15,9 C 20,0 C 16,1 km/h (3 Bft)
13.06.2013 09:55 20,7 C 74 % 1015,7 hPa 0,0 l/m 8,5 km/h (2 Bft) S-SO 157 5 min 0,000 mm 2,6 UV-I 592 W/m 15,9 C 19,9 C 16,1 km/h (3 Bft)
13.06.2013 10:00 20,8 C 74 % 1015,6 hPa 0,0 l/m 7,7 km/h (2 Bft) S-SW 203 0 min 0,000 mm 2,1 UV-I 311 W/m 16,0 C 20,3 C 17,7 km/h (3 Bft)
13.06.2013 10:05 20,7 C 75 % 1015,6 hPa 0,0 l/m 5,1 km/h (1 Bft) SW 236 0 min 0,228 mm 1,4 UV-I 179 W/m 16,1 C 20,7 C 12,9 km/h (3 Bft)
13.06.2013 10:10 20,8 C 74 % 1015,5 hPa 0,0 l/m 4,9 km/h (1 Bft) S 170 0 min 0,000 mm 1,8 UV-I 250 W/m 16,0 C 20,8 C 16,1 km/h (3 Bft)
13.06.2013 10:15 20,8 C 74 % 1015,5 hPa 0,0 l/m 4,9 km/h (1 Bft) S 188 0 min 0,000 mm 2,3 UV-I 253 W/m 16,0 C 20,8 C 11,3 km/h (2 Bft)
13.06.2013 10:20 20,8 C 74 % 1015,4 hPa 0,0 l/m 5,2 km/h (1 Bft) S-SO 157 0 min 0,000 mm 2,0 UV-I 267 W/m 16,0 C 20,8 C 12,9 km/h (3 Bft)
13.06.2013 10:25 20,8 C 74 % 1015,4 hPa 0,0 l/m 5,2 km/h (1 Bft) SW 232 0 min 0,000 mm 2,2 UV-I 288 W/m 16,0 C 20,8 C 14,5 km/h (3 Bft)
13.06.2013 10:30 20,8 C 74 % 1015,4 hPa 0,0 l/m 6,2 km/h (2 Bft) W 261 0 min 0,000 mm 1,9 UV-I 214 W/m 16,0 C 20,8 C 12,9 km/h (3 Bft)
13.06.2013 10:35 20,6 C 75 % 1015,3 hPa 0,0 l/m 7,9 km/h (2 Bft) S 184 0 min 0,000 mm 2,3 UV-I 241 W/m 16,0 C 20,0 C 16,1 km/h (3 Bft)
13.06.2013 10:40 20,8 C 74 % 1015,2 hPa 0,0 l/m 5,0 km/h (1 Bft) SW 223 0 min 0,000 mm 2,7 UV-I 274 W/m 16,0 C 20,8 C 12,9 km/h (3 Bft)
13.06.2013 10:45 21,1 C 74 % 1015,2 hPa 0,0 l/m 3,6 km/h (1 Bft) W-SW 238 0 min 0,000 mm 3,1 UV-I 316 W/m 16,3 C 21,1 C 11,3 km/h (2 Bft)
13.06.2013 10:50 21,2 C 72 % 1015,1 hPa 0,0 l/m 6,4 km/h (2 Bft) SW 223 0 min 0,000 mm 2,6 UV-I 323 W/m 15,9 C 21,2 C 16,1 km/h (3 Bft)
13.06.2013 10:55 21,6 C 70 % 1015,2 hPa 0,0 l/m 4,4 km/h (1 Bft) W 277 0 min 0,000 mm 2,1 UV-I 272 W/m 15,9 C 21,6 C 12,9 km/h (3 Bft)
13.06.2013 11:00 21,4 C 71 % 1015,1 hPa 0,0 l/m 8,1 km/h (2 Bft) S 186 5 min 0,000 mm 3,0 UV-I 810 W/m 15,9 C 20,8 C 16,1 km/h (3 Bft)
13.06.2013 11:05 21,8 C 71 % 1015,1 hPa 0,0 l/m 4,7 km/h (1 Bft) W-SW 248 0 min 0,204 mm 2,8 UV-I 243 W/m 16,3 C 21,8 C 9,7 km/h (2 Bft)
13.06.2013 11:10 21,8 C 70 % 1015,1 hPa 0,0 l/m 6,6 km/h (2 Bft) W-SW 244 0 min 0,000 mm 2,9 UV-I 258 W/m 16,1 C 21,7 C 14,5 km/h (3 Bft)
13.06.2013 11:15 21,7 C 70 % 1015,2 hPa 0,0 l/m 6,5 km/h (2 Bft) SW 225 0 min 0,000 mm 3,2 UV-I 287 W/m 16,0 C 21,7 C 12,9 km/h (3 Bft)
13.06.2013 11:20 21,8 C 70 % 1015,1 hPa 0,0 l/m 6,1 km/h (2 Bft) W 279 5 min 0,000 mm 4,3 UV-I 587 W/m 16,1 C 21,8 C 14,5 km/h (3 Bft)
13.06.2013 11:25 21,7 C 70 % 1015,1 hPa 0,0 l/m 9,0 km/h (2 Bft) S 182 0 min 0,000 mm 2,7 UV-I 294 W/m 16,0 C 20,8 C 19,3 km/h (3 Bft)
13.06.2013 11:30 21,8 C 69 % 1015,0 hPa 0,0 l/m 7,2 km/h (2 Bft) W-SW 242 0 min 0,000 mm 2,7 UV-I 290 W/m 15,9 C 21,5 C 19,3 km/h (3 Bft)
13.06.2013 11:35 21,6 C 69 % 1014,9 hPa 0,0 l/m 10,5 km/h (2 Bft) W-SW 244 0 min 0,000 mm 1,9 UV-I 206 W/m 15,7 C 20,3 C 17,7 km/h (3 Bft)
13.06.2013 11:40 21,8 C 70 % 1014,8 hPa 0,0 l/m 5,3 km/h (1 Bft) S-SW 203 0 min 0,000 mm 1,4 UV-I 169 W/m 16,1 C 21,8 C 12,9 km/h (3 Bft)
13.06.2013 11:45 21,4 C 70 % 1014,8 hPa 0,0 l/m 10,0 km/h (2 Bft) W 263 0 min 0,000 mm 1,8 UV-I 204 W/m 15,7 C 20,2 C 17,7 km/h (3 Bft)
13.06.2013 11:50 21,4 C 71 % 1014,8 hPa 0,0 l/m 6,7 km/h (2 Bft) W 281 0 min 0,000 mm 3,0 UV-I 343 W/m 15,9 C 21,3 C 12,9 km/h (3 Bft)
13.06.2013 11:55 21,4 C 71 % 1014,7 hPa 0,0 l/m 10,3 km/h (2 Bft) W-SW 238 5 min 0,000 mm 6,1 UV-I 881 W/m 15,9 C 20,1 C 19,3 km/h (3 Bft)
13.06.2013 12:00 22,0 C 68 % 1014,6 hPa 0,0 l/m 8,4 km/h (2 Bft) SW 229 5 min 0,000 mm 7,0 UV-I 918 W/m 15,8 C 21,3 C 17,7 km/h (3 Bft)
13.06.2013 12:05 22,7 C 67 % 1014,5 hPa 0,0 l/m 7,0 km/h (2 Bft) W-NW 302 5 min 0,254 mm 6,9 UV-I 795 W/m 16,2 C 22,5 C 14,5 km/h (3 Bft)
13.06.2013 12:10 23,2 C 65 % 1014,6 hPa 0,0 l/m 8,7 km/h (2 Bft) W-SW 248 5 min 0,000 mm 4,3 UV-I 905 W/m 16,2 C 22,5 C 17,7 km/h (3 Bft)
13.06.2013 12:15 23,3 C 63 % 1014,5 hPa 0,0 l/m 7,1 km/h (2 Bft) S 185 0 min 0,000 mm 3,8 UV-I 359 W/m 15,9 C 23,1 C 14,5 km/h (3 Bft)
13.06.2013 12:20 23,0 C 63 % 1014,5 hPa 0,0 l/m 9,9 km/h (2 Bft) W 268 0 min 0,000 mm 3,4 UV-I 250 W/m 15,6 C 22,0 C 19,3 km/h (3 Bft)
13.06.2013 12:25 23,0 C 63 % 1014,4 hPa 0,0 l/m 8,9 km/h (2 Bft) S 181 0 min 0,000 mm 3,9 UV-I 281 W/m 15,6 C 22,2 C 16,1 km/h (3 Bft)
13.06.2013 12:30 23,2 C 63 % 1014,4 hPa 0,0 l/m 9,9 km/h (2 Bft) W-SW 257 5 min 0,000 mm 7,8 UV-I 1074 W/m 15,8 C 22,2 C 17,7 km/h (3 Bft)
13.06.2013 12:35 23,5 C 64 % 1014,4 hPa 0,0 l/m 7,8 km/h (2 Bft) S 173 5 min 0,000 mm 7,8 UV-I 1037 W/m 16,3 C 23,1 C 17,7 km/h (3 Bft)
13.06.2013 12:40 24,1 C 60 % 1014,3 hPa 0,0 l/m 7,4 km/h (2 Bft) W 278 0 min 0,000 mm 7,0 UV-I 387 W/m 15,8 C 23,8 C 20,9 km/h (4 Bft)
13.06.2013 12:45 23,6 C 60 % 1014,3 hPa 0,0 l/m 9,4 km/h (2 Bft) SW 232 0 min 0,000 mm 2,5 UV-I 230 W/m 15,4 C 22,8 C 17,7 km/h (3 Bft)
13.06.2013 12:50 23,3 C 62 % 1014,3 hPa 0,0 l/m 9,0 km/h (2 Bft) W-SW 243 0 min 0,000 mm 4,0 UV-I 322 W/m 15,6 C 22,5 C 16,1 km/h (3 Bft)
13.06.2013 12:55 23,7 C 62 % 1014,3 hPa 0,0 l/m 9,4 km/h (2 Bft) O 101 5 min 0,000 mm 8,4 UV-I 1095 W/m 16,0 C 22,9 C 20,9 km/h (4 Bft)
13.06.2013 13:00 24,3 C 61 % 1014,2 hPa 0,0 l/m 7,0 km/h (2 Bft) SW 231 5 min 0,000 mm 8,4 UV-I 1090 W/m 16,3 C 24,1 C 16,1 km/h (3 Bft)
13.06.2013 13:05 24,4 C 57 % 1014,0 hPa 0,0 l/m 7,7 km/h (2 Bft) W 271 5 min 0,457 mm 3,9 UV-I 526 W/m 15,3 C 24,0 C 19,3 km/h (3 Bft)
13.06.2013 13:10 23,8 C 57 % 1014,2 hPa 0,0 l/m 10,8 km/h (2 Bft) W 273 0 min 0,000 mm 1,7 UV-I 193 W/m 14,8 C 22,7 C 20,9 km/h (4 Bft)
13.06.2013 13:15 23,4 C 60 % 1014,1 hPa 0,0 l/m 9,8 km/h (2 Bft) W 261 0 min 0,000 mm 2,8 UV-I 297 W/m 15,2 C 22,4 C 22,5 km/h (4 Bft)
13.06.2013 13:20 23,6 C 61 % 1014,0 hPa 0,0 l/m 7,8 km/h (2 Bft) S-SO 153 0 min 0,000 mm 4,0 UV-I 429 W/m 15,6 C 23,2 C 16,1 km/h (3 Bft)
13.06.2013 13:25 23,9 C 60 % 1013,9 hPa 0,0 l/m 8,1 km/h (2 Bft) SW 216 5 min 0,000 mm 5,9 UV-I 536 W/m 15,7 C 23,4 C 20,9 km/h (4 Bft)
13.06.2013 13:30 23,8 C 60 % 1013,9 hPa 0,0 l/m 9,6 km/h (2 Bft) W 259 0 min 0,000 mm 3,2 UV-I 309 W/m 15,6 C 22,9 C 16,1 km/h (3 Bft)
13.06.2013 13:35 23,5 C 61 % 1013,9 hPa 0,0 l/m 9,5 km/h (2 Bft) S-SW 192 0 min 0,000 mm 2,4 UV-I 244 W/m 15,5 C 22,6 C 16,1 km/h (3 Bft)
13.06.2013 13:40 23,6 C 61 % 1013,9 hPa 0,0 l/m 6,6 km/h (2 Bft) SW 232 0 min 0,000 mm 7,4 UV-I 341 W/m 15,6 C 23,5 C 16,1 km/h (3 Bft)
13.06.2013 13:45 24,4 C 58 % 1013,9 hPa 0,0 l/m 7,9 km/h (2 Bft) NW 315 5 min 0,000 mm 8,2 UV-I 1025 W/m 15,6 C 24,0 C 20,9 km/h (4 Bft)
13.06.2013 13:50 25,1 C 55 % 1013,8 hPa 0,0 l/m 9,4 km/h (2 Bft) W-SW 240 5 min 0,000 mm 7,8 UV-I 988 W/m 15,4 C 24,4 C 19,3 km/h (3 Bft)
13.06.2013 13:55 24,6 C 56 % 1013,7 hPa 0,0 l/m 12,0 km/h (2 Bft) W-NW 283 0 min 0,000 mm 5,8 UV-I 330 W/m 15,2 C 23,3 C 24,1 km/h (4 Bft)
13.06.2013 14:00 24,3 C 55 % 1013,6 hPa 0,0 l/m 14,3 km/h (3 Bft) W-SW 250 5 min 0,000 mm 5,5 UV-I 1283 W/m 14,7 C 22,6 C 24,1 km/h (4 Bft)
13.06.2013 14:05 24,4 C 54 % 1013,5 hPa 0,0 l/m 12,3 km/h (3 Bft) W-SW 244 5 min 0,432 mm 5,2 UV-I 526 W/m 14,5 C 23,0 C 22,5 km/h (4 Bft)
13.06.2013 14:10 25,3 C 54 % 1013,5 hPa 0,0 l/m 9,6 km/h (2 Bft) SW 214 5 min 0,000 mm 5,0 UV-I 1273 W/m 15,3 C 24,6 C 20,9 km/h (4 Bft)
13.06.2013 14:15 25,2 C 53 % 1013,4 hPa 0,0 l/m 8,6 km/h (2 Bft) W-SW 247 5 min 0,000 mm 7,3 UV-I 698 W/m 14,9 C 24,7 C 20,9 km/h (4 Bft)
13.06.2013 14:20 25,4 C 52 % 1013,4 hPa 0,0 l/m 8,2 km/h (2 Bft) W-SW 250 5 min 0,000 mm 8,0 UV-I 1016 W/m 14,8 C 25,0 C 19,3 km/h (3 Bft)
13.06.2013 14:25 26,0 C 51 % 1013,3 hPa 0,0 l/m 8,2 km/h (2 Bft) W 264 5 min 0,000 mm 7,4 UV-I 1030 W/m 15,1 C 25,6 C 17,7 km/h (3 Bft)
13.06.2013 14:30 25,3 C 52 % 1013,3 hPa 0,0 l/m 11,5 km/h (2 Bft) S 190 5 min 0,000 mm 7,1 UV-I 1028 W/m 14,7 C 24,2 C 24,1 km/h (4 Bft)
13.06.2013 14:35 25,5 C 52 % 1013,2 hPa 0,0 l/m 10,5 km/h (2 Bft) S 190 0 min 0,000 mm 7,2 UV-I 271 W/m 14,9 C 24,6 C 20,9 km/h (4 Bft)
13.06.2013 14:40 26,7 C 51 % 1013,0 hPa 0,0 l/m 7,0 km/h (2 Bft) S 184 5 min 0,000 mm 7,3 UV-I 1013 W/m 15,7 C 26,6 C 16,1 km/h (3 Bft)
13.06.2013 14:45 27,3 C 47 % 1013,0 hPa 0,0 l/m 7,1 km/h (2 Bft) SW 220 5 min 0,000 mm 3,8 UV-I 1071 W/m 15,0 C 27,2 C 16,1 km/h (3 Bft)
13.06.2013 14:50 26,4 C 47 % 1013,0 hPa 0,0 l/m 14,2 km/h (3 Bft) W 264 5 min 0,000 mm 6,7 UV-I 990 W/m 14,2 C 25,1 C 24,1 km/h (4 Bft)
13.06.2013 14:55 25,9 C 49 % 1013,0 hPa 0,0 l/m 13,6 km/h (3 Bft) SW 234 5 min 0,000 mm 7,0 UV-I 988 W/m 14,4 C 24,6 C 27,4 km/h (4 Bft)
13.06.2013 15:00 26,4 C 49 % 1013,0 hPa 0,0 l/m 9,7 km/h (2 Bft) SW 229 5 min 0,000 mm 6,8 UV-I 935 W/m 14,8 C 25,8 C 17,7 km/h (3 Bft)
13.06.2013 15:05 26,5 C 49 % 1012,8 hPa 0,0 l/m 10,5 km/h (2 Bft) W-SW 252 5 min 0,635 mm 6,8 UV-I 967 W/m 14,9 C 25,7 C 29,0 km/h (5 Bft)
13.06.2013 15:10 26,3 C 50 % 1012,8 hPa 0,0 l/m 11,7 km/h (2 Bft) O-SO 110 5 min 0,000 mm 6,1 UV-I 1046 W/m 15,0 C 25,3 C 20,9 km/h (4 Bft)
13.06.2013 15:15 26,3 C 52 % 1012,8 hPa 0,0 l/m 7,6 km/h (2 Bft) S 185 0 min 0,000 mm 4,4 UV-I 304 W/m 15,6 C 26,0 C 14,5 km/h (3 Bft)
13.06.2013 15:20 25,7 C 53 % 1012,9 hPa 0,0 l/m 11,5 km/h (2 Bft) O-NO 76 0 min 0,000 mm 4,5 UV-I 425 W/m 15,4 C 24,7 C 24,1 km/h (4 Bft)
13.06.2013 15:25 25,3 C 54 % 1012,9 hPa 0,0 l/m 9,0 km/h (2 Bft) SW 215 0 min 0,000 mm 3,1 UV-I 251 W/m 15,3 C 24,7 C 20,9 km/h (4 Bft)
13.06.2013 15:30 25,5 C 55 % 1012,8 hPa 0,0 l/m 6,3 km/h (2 Bft) SO 132 0 min 0,000 mm 3,8 UV-I 415 W/m 15,8 C 25,5 C 17,7 km/h (3 Bft)
13.06.2013 15:35 24,8 C 56 % 1012,7 hPa 0,0 l/m 9,4 km/h (2 Bft) SW 218 0 min 0,000 mm 3,6 UV-I 362 W/m 15,4 C 24,1 C 20,9 km/h (4 Bft)
13.06.2013 15:40 25,3 C 54 % 1012,7 hPa 0,0 l/m 7,4 km/h (2 Bft) W 269 0 min 0,000 mm 3,2 UV-I 309 W/m 15,3 C 25,1 C 20,9 km/h (4 Bft)
13.06.2013 15:45 24,9 C 55 % 1012,8 hPa 0,0 l/m 10,9 km/h (2 Bft) W-SW 256 0 min 0,000 mm 3,1 UV-I 308 W/m 15,2 C 23,9 C 19,3 km/h (3 Bft)
13.06.2013 15:50 24,8 C 55 % 1012,7 hPa 0,0 l/m 7,1 km/h (2 Bft) S-SW 213 0 min 0,000 mm 2,9 UV-I 264 W/m 15,1 C 24,6 C 16,1 km/h (3 Bft)
13.06.2013 15:55 24,8 C 55 % 1012,6 hPa 0,0 l/m 5,9 km/h (2 Bft) S-SW 201 0 min 0,000 mm 3,8 UV-I 336 W/m 15,1 C 24,8 C 12,9 km/h (3 Bft)
13.06.2013 16:00 25,2 C 54 % 1012,6 hPa 0,0 l/m 5,3 km/h (1 Bft) S-SW 195 0 min 0,000 mm 3,0 UV-I 327 W/m 15,2 C 25,2 C 12,9 km/h (3 Bft)
13.06.2013 16:05 25,2 C 55 % 1012,5 hPa 0,0 l/m 6,8 km/h (2 Bft) W-SW 252 5 min 0,330 mm 3,2 UV-I 531 W/m 15,5 C 25,1 C 14,5 km/h (3 Bft)
13.06.2013 16:10 25,3 C 54 % 1012,5 hPa 0,0 l/m 6,0 km/h (2 Bft) S 188 0 min 0,000 mm 3,1 UV-I 385 W/m 15,3 C 25,3 C 19,3 km/h (3 Bft)
13.06.2013 16:15 25,1 C 54 % 1012,4 hPa 0,0 l/m 7,8 km/h (2 Bft) S-SO 166 0 min 0,000 mm 2,9 UV-I 352 W/m 15,1 C 24,8 C 16,1 km/h (3 Bft)
13.06.2013 16:20 25,3 C 54 % 1012,2 hPa 0,0 l/m 5,1 km/h (1 Bft) W-SW 240 0 min 0,000 mm 2,8 UV-I 330 W/m 15,3 C 25,3 C 11,3 km/h (2 Bft)
13.06.2013 16:25 25,6 C 53 % 1012,2 hPa 0,0 l/m 4,7 km/h (1 Bft) S-SW 195 0 min 0,000 mm 2,5 UV-I 308 W/m 15,3 C 25,6 C 14,5 km/h (3 Bft)
13.06.2013 16:30 25,6 C 54 % 1012,1 hPa 0,0 l/m 5,5 km/h (1 Bft) O-SO 119 0 min 0,000 mm 2,5 UV-I 369 W/m 15,6 C 25,6 C 12,9 km/h (3 Bft)
13.06.2013 16:35 25,3 C 55 % 1012,0 hPa 0,0 l/m 5,5 km/h (1 Bft) O 93 0 min 0,000 mm 2,4 UV-I 283 W/m 15,6 C 25,3 C 14,5 km/h (3 Bft)
13.06.2013 16:40 25,0 C 56 % 1012,0 hPa 0,0 l/m 8,1 km/h (2 Bft) S-SO 162 0 min 0,000 mm 2,2 UV-I 276 W/m 15,6 C 24,6 C 17,7 km/h (3 Bft)
13.06.2013 16:45 24,8 C 56 % 1011,9 hPa 0,0 l/m 8,5 km/h (2 Bft) SW 230 0 min 0,000 mm 1,8 UV-I 225 W/m 15,4 C 24,3 C 19,3 km/h (3 Bft)
13.06.2013 16:50 24,8 C 57 % 1012,0 hPa 0,0 l/m 6,6 km/h (2 Bft) W 275 0 min 0,000 mm 1,5 UV-I 181 W/m 15,7 C 24,8 C 16,1 km/h (3 Bft)
13.06.2013 16:55 24,9 C 57 % 1011,8 hPa 0,0 l/m 5,3 km/h (1 Bft) SW 227 0 min 0,000 mm 1,5 UV-I 192 W/m 15,8 C 24,9 C 14,5 km/h (3 Bft)
13.06.2013 17:00 24,8 C 56 % 1011,8 hPa 0,0 l/m 6,3 km/h (2 Bft) SW 226 0 min 0,000 mm 0,9 UV-I 120 W/m 15,4 C 24,8 C 14,5 km/h (3 Bft)
13.06.2013 17:05 24,7 C 56 % 1011,6 hPa 0,0 l/m 5,0 km/h (1 Bft) S-SW 205 0 min 0,228 mm 1,1 UV-I 134 W/m 15,3 C 24,7 C 14,5 km/h (3 Bft)
13.06.2013 17:10 24,6 C 56 % 1011,5 hPa 0,0 l/m 6,6 km/h (2 Bft) S-SO 163 0 min 0,000 mm 1,3 UV-I 178 W/m 15,2 C 24,6 C 16,1 km/h (3 Bft)
13.06.2013 17:15 24,8 C 56 % 1011,5 hPa 0,0 l/m 4,2 km/h (1 Bft) SW 219 0 min 0,000 mm 1,6 UV-I 211 W/m 15,4 C 24,8 C 12,9 km/h (3 Bft)
13.06.2013 17:20 24,9 C 56 % 1011,4 hPa 0,0 l/m 2,9 km/h (1 Bft) S-SW 194 0 min 0,000 mm 1,6 UV-I 225 W/m 15,5 C 24,9 C 9,7 km/h (2 Bft)
13.06.2013 17:25 25,1 C 56 % 1011,3 hPa 0,0 l/m 3,8 km/h (1 Bft) W-SW 248 0 min 0,000 mm 1,5 UV-I 213 W/m 15,7 C 25,1 C 12,9 km/h (3 Bft)
13.06.2013 17:30 24,9 C 55 % 1011,2 hPa 0,0 l/m 9,1 km/h (2 Bft) S-SW 207 0 min 0,000 mm 1,5 UV-I 229 W/m 15,2 C 24,2 C 19,3 km/h (3 Bft)
13.06.2013 17:35 24,7 C 54 % 1011,2 hPa 0,0 l/m 11,6 km/h (2 Bft) SW 226 0 min 0,000 mm 0,7 UV-I 105 W/m 14,8 C 23,5 C 20,9 km/h (4 Bft)
13.06.2013 17:40 24,6 C 55 % 1011,1 hPa 0,0 l/m 7,7 km/h (2 Bft) W-SW 237 0 min 0,000 mm 0,6 UV-I 81 W/m 14,9 C 24,3 C 19,3 km/h (3 Bft)
13.06.2013 17:45 24,4 C 55 % 1011,2 hPa 0,0 l/m 9,7 km/h (2 Bft) SW 234 0 min 0,000 mm 0,0 UV-I 58 W/m 14,8 C 23,6 C 16,1 km/h (3 Bft)
13.06.2013 17:50 24,2 C 55 % 1011,1 hPa 0,0 l/m 8,5 km/h (2 Bft) SW 221 0 min 0,000 mm 0,0 UV-I 35 W/m 14,6 C 23,6 C 19,3 km/h (3 Bft)
13.06.2013 17:55 24,1 C 56 % 1011,1 hPa 0,0 l/m 6,2 km/h (2 Bft) W-SW 242 0 min 0,000 mm 0,0 UV-I 32 W/m 14,8 C 24,1 C 11,3 km/h (2 Bft)
13.06.2013 18:00 24,0 C 57 % 1011,1 hPa 0,0 l/m 6,7 km/h (2 Bft) W-NW 293 0 min 0,000 mm 0,0 UV-I 37 W/m 14,9 C 23,9 C 16,1 km/h (3 Bft)
13.06.2013 18:05 23,8 C 57 % 1011,0 hPa 0,0 l/m 8,2 km/h (2 Bft) W-SW 242 0 min 0,127 mm 0,0 UV-I 28 W/m 14,8 C 23,3 C 14,5 km/h (3 Bft)
13.06.2013 18:10 23,6 C 59 % 1011,4 hPa 0,0 l/m 11,2 km/h (2 Bft) W-NW 296 0 min 0,000 mm 0,0 UV-I 12 W/m 15,1 C 22,3 C 33,8 km/h (5 Bft)
13.06.2013 18:15 22,1 C 67 % 1011,3 hPa 0,0 l/m 14,2 km/h (3 Bft) NW 312 0 min 0,000 mm 0,0 UV-I 12 W/m 15,7 C 20,0 C 25,7 km/h (4 Bft)
13.06.2013 18:20 21,2 C 71 % 1011,5 hPa 0,0 l/m 10,5 km/h (2 Bft) NW 317 0 min 0,000 mm 0,0 UV-I 14 W/m 15,7 C 19,8 C 22,5 km/h (4 Bft)
13.06.2013 18:25 20,4 C 74 % 1011,6 hPa 0,0 l/m 7,5 km/h (2 Bft) W 277 0 min 0,000 mm 0,0 UV-I 12 W/m 15,6 C 20,0 C 14,5 km/h (3 Bft)
13.06.2013 18:30 19,8 C 77 % 1011,6 hPa 0,0 l/m 11,7 km/h (2 Bft) NW 311 0 min 0,000 mm 0,0 UV-I 23 W/m 15,6 C 17,9 C 25,7 km/h (4 Bft)
13.06.2013 18:35 19,4 C 78 % 1011,7 hPa 0,0 l/m 9,8 km/h (2 Bft) W-SW 241 0 min 0,000 mm 0,0 UV-I 28 W/m 15,5 C 18,0 C 22,5 km/h (4 Bft)
13.06.2013 18:40 19,3 C 79 % 1011,5 hPa 0,0 l/m 5,7 km/h (1 Bft) W-SW 253 0 min 0,000 mm 0,0 UV-I 46 W/m 15,6 C 19,3 C 14,5 km/h (3 Bft)
13.06.2013 18:45 19,1 C 79 % 1011,6 hPa 0,0 l/m 11,0 km/h (2 Bft) W-NW 301 0 min 0,000 mm 0,0 UV-I 46 W/m 15,4 C 17,3 C 24,1 km/h (4 Bft)
13.06.2013 18:50 19,1 C 79 % 1011,7 hPa 0,0 l/m 7,5 km/h (2 Bft) W 261 0 min 0,000 mm 0,0 UV-I 37 W/m 15,4 C 18,6 C 14,5 km/h (3 Bft)
13.06.2013 18:55 19,1 C 79 % 1011,6 hPa 0,0 l/m 7,6 km/h (2 Bft) W-NW 287 0 min 0,000 mm 0,0 UV-I 35 W/m 15,4 C 18,6 C 16,1 km/h (3 Bft)
13.06.2013 19:00 18,9 C 79 % 1011,5 hPa 0,0 l/m 10,6 km/h (2 Bft) W 262 0 min 0,000 mm 0,0 UV-I 69 W/m 15,2 C 17,2 C 22,5 km/h (4 Bft)
13.06.2013 19:05 18,8 C 78 % 1011,4 hPa 0,0 l/m 10,3 km/h (2 Bft) SW 227 0 min 0,051 mm 0,0 UV-I 81 W/m 14,9 C 17,2 C 19,3 km/h (3 Bft)
13.06.2013 19:10 18,7 C 79 % 1011,4 hPa 0,0 l/m 9,3 km/h (2 Bft) W-SW 250 0 min 0,000 mm 0,5 UV-I 120 W/m 15,0 C 17,5 C 16,1 km/h (3 Bft)
13.06.2013 19:15 18,7 C 78 % 1011,5 hPa 0,0 l/m 8,6 km/h (2 Bft) W-SW 257 0 min 0,000 mm 0,0 UV-I 79 W/m 14,8 C 17,7 C 16,1 km/h (3 Bft)
13.06.2013 19:20 18,7 C 78 % 1011,4 hPa 0,0 l/m 7,0 km/h (2 Bft) W-NW 287 0 min 0,000 mm 0,0 UV-I 100 W/m 14,8 C 18,4 C 12,9 km/h (3 Bft)
13.06.2013 19:25 18,7 C 78 % 1011,5 hPa 0,0 l/m 6,3 km/h (2 Bft) SW 236 0 min 0,000 mm 0,0 UV-I 49 W/m 14,8 C 18,7 C 11,3 km/h (2 Bft)
13.06.2013 19:30 18,6 C 79 % 1011,5 hPa 0,0 l/m 7,1 km/h (2 Bft) SW 232 0 min 0,000 mm 0,0 UV-I 19 W/m 14,9 C 18,3 C 14,5 km/h (3 Bft)
13.06.2013 19:35 18,4 C 79 % 1011,7 hPa 0,0 l/m 8,5 km/h (2 Bft) W-NW 299 0 min 0,000 mm 0,0 UV-I 16 W/m 14,7 C 17,5 C 14,5 km/h (3 Bft)
13.06.2013 19:40 18,3 C 79 % 1011,7 hPa 0,0 l/m 8,1 km/h (2 Bft) W-NW 296 0 min 0,000 mm 0,0 UV-I 14 W/m 14,6 C 17,5 C 16,1 km/h (3 Bft)
13.06.2013 19:45 18,1 C 80 % 1011,8 hPa 0,0 l/m 12,7 km/h (3 Bft) W 269 0 min 0,000 mm 0,0 UV-I 5 W/m 14,6 C 15,6 C 22,5 km/h (4 Bft)
13.06.2013 19:50 17,8 C 81 % 1012,2 hPa 0,0 l/m 9,0 km/h (2 Bft) W-SW 257 0 min 0,000 mm 0,0 UV-I 0 W/m 14,5 C 16,6 C 17,7 km/h (3 Bft)
13.06.2013 19:55 17,3 C 80 % 1012,3 hPa 0,0 l/m 16,0 km/h (3 Bft) SW 220 0 min 0,000 mm 0,0 UV-I 0 W/m 13,8 C 13,7 C 32,2 km/h (5 Bft)
13.06.2013 20:00 16,6 C 80 % 1012,4 hPa 0,0 l/m 15,7 km/h (3 Bft) W 260 0 min 0,000 mm 0,0 UV-I 0 W/m 13,1 C 12,9 C 27,4 km/h (4 Bft)
13.06.2013 20:05 15,9 C 78 % 1013,1 hPa 0,0 l/m 13,9 km/h (3 Bft) W-NW 287 0 min 0,051 mm 0,0 UV-I 0 W/m 12,1 C 12,6 C 27,4 km/h (4 Bft)
13.06.2013 20:10 15,3 C 79 % 1013,3 hPa 0,0 l/m 18,9 km/h (3 Bft) W-NW 296 0 min 0,000 mm 0,0 UV-I 0 W/m 11,7 C 10,4 C 48,3 km/h (6 Bft)
13.06.2013 20:15 14,8 C 82 % 1013,7 hPa 0,4 l/m 13,9 km/h (3 Bft) W 281 0 min 0,000 mm 0,0 UV-I 0 W/m 11,8 C 11,3 C 33,8 km/h (5 Bft)
13.06.2013 20:20 14,3 C 85 % 1013,8 hPa 0,6 l/m 13,6 km/h (3 Bft) W-NW 297 0 min 0,000 mm 0,0 UV-I 0 W/m 11,8 C 10,8 C 29,0 km/h (5 Bft)
13.06.2013 20:25 13,9 C 86 % 1013,7 hPa 0,2 l/m 15,7 km/h (3 Bft) W 267 0 min 0,000 mm 0,0 UV-I 0 W/m 11,6 C 9,6 C 29,0 km/h (5 Bft)
13.06.2013 20:30 13,8 C 87 % 1014,1 hPa 0,0 l/m 15,7 km/h (3 Bft) W-NW 295 0 min 0,000 mm 0,0 UV-I 0 W/m 11,7 C 9,5 C 27,4 km/h (4 Bft)
13.06.2013 20:35 13,7 C 89 % 1014,4 hPa 0,4 l/m 14,1 km/h (3 Bft) W 270 0 min 0,000 mm 0,0 UV-I 0 W/m 11,9 C 9,9 C 25,7 km/h (4 Bft)
13.06.2013 20:40 13,6 C 89 % 1014,2 hPa 0,4 l/m 15,8 km/h (3 Bft) W 280 0 min 0,000 mm 0,0 UV-I 0 W/m 11,8 C 9,2 C 35,4 km/h (5 Bft)
13.06.2013 20:45 13,5 C 90 % 1014,3 hPa 0,4 l/m 11,2 km/h (2 Bft) W-SW 244 0 min 0,000 mm 0,0 UV-I 0 W/m 11,9 C 10,9 C 22,5 km/h (4 Bft)
13.06.2013 20:50 13,4 C 90 % 1014,4 hPa 0,4 l/m 10,2 km/h (2 Bft) W 279 0 min 0,000 mm 0,0 UV-I 5 W/m 11,8 C 11,3 C 16,1 km/h (3 Bft)
13.06.2013 20:55 13,4 C 90 % 1014,3 hPa 0,0 l/m 9,1 km/h (2 Bft) W 275 0 min 0,000 mm 0,0 UV-I 5 W/m 11,8 C 11,8 C 16,1 km/h (3 Bft)
13.06.2013 21:00 13,4 C 91 % 1014,1 hPa 0,2 l/m 4,8 km/h (1 Bft) W 263 0 min 0,000 mm 0,0 UV-I 0 W/m 12,0 C 13,4 C 12,9 km/h (3 Bft)
13.06.2013 21:05 13,4 C 91 % 1014,2 hPa 0,0 l/m 6,5 km/h (2 Bft) W 272 0 min 0,025 mm 0,0 UV-I 0 W/m 12,0 C 13,4 C 12,9 km/h (3 Bft)
13.06.2013 21:10 13,4 C 91 % 1014,2 hPa 0,0 l/m 3,9 km/h (1 Bft) W 279 0 min 0,000 mm 0,0 UV-I 0 W/m 12,0 C 13,4 C 8,0 km/h (2 Bft)
13.06.2013 21:15 13,3 C 91 % 1014,1 hPa 0,0 l/m 4,0 km/h (1 Bft) W-NW 291 0 min 0,000 mm 0,0 UV-I 0 W/m 11,9 C 13,3 C 8,0 km/h (2 Bft)
13.06.2013 21:20 13,4 C 92 % 1013,9 hPa 0,0 l/m 2,6 km/h (1 Bft) W 277 0 min 0,000 mm 0,0 UV-I 0 W/m 12,1 C 13,4 C 8,0 km/h (2 Bft)
13.06.2013 21:25 13,3 C 91 % 1014,0 hPa 0,4 l/m 5,2 km/h (1 Bft) W 281 0 min 0,000 mm 0,0 UV-I 0 W/m 11,9 C 13,3 C 12,9 km/h (3 Bft)
13.06.2013 21:30 13,3 C 92 % 1013,8 hPa 0,2 l/m 3,5 km/h (1 Bft) W-SW 254 0 min 0,000 mm 0,0 UV-I 0 W/m 12,0 C 13,3 C 9,7 km/h (2 Bft)
13.06.2013 21:35 13,3 C 92 % 1013,9 hPa 0,4 l/m 5,5 km/h (1 Bft) W 261 0 min 0,000 mm 0,0 UV-I 0 W/m 12,0 C 13,3 C 11,3 km/h (2 Bft)
13.06.2013 21:40 13,2 C 92 % 1013,8 hPa 0,2 l/m 6,0 km/h (2 Bft) W 267 0 min 0,000 mm 0,0 UV-I 0 W/m 11,9 C 13,2 C 11,3 km/h (2 Bft)
13.06.2013 21:45 13,2 C 93 % 1014,0 hPa 0,2 l/m 6,4 km/h (2 Bft) SW 235 0 min 0,000 mm 0,0 UV-I 0 W/m 12,1 C 13,2 C 11,3 km/h (2 Bft)
13.06.2013 21:50 13,2 C 93 % 1014,2 hPa 0,0 l/m 7,8 km/h (2 Bft) W 271 0 min 0,000 mm 0,0 UV-I 0 W/m 12,1 C 12,3 C 12,9 km/h (3 Bft)
13.06.2013 21:55 13,2 C 93 % 1014,3 hPa 0,0 l/m 6,6 km/h (2 Bft) W-NW 282 0 min 0,000 mm 0,0 UV-I 0 W/m 12,1 C 13,1 C 12,9 km/h (3 Bft)
13.06.2013 21:59 13,1 C 93 % 1014,5 hPa 0,2 l/m 6,6 km/h (2 Bft) W-NW 297 0 min 0,000 mm 0,0 UV-I 0 W/m 12,0 C 13,0 C 11,3 km/h (2 Bft)
13.06.2013 22:00 13,1 C 93 % 1014,5 hPa 0,0 l/m 6,2 km/h (2 Bft) W-NW 288 0 min 0,000 mm 0,0 UV-I 0 W/m 12,0 C 13,1 C 8,0 km/h (2 Bft)
13.06.2013 22:05 13,1 C 93 % 1014,8 hPa 0,0 l/m 8,7 km/h (2 Bft) W-NW 294 0 min 0,000 mm 0,0 UV-I 0 W/m 12,0 C 11,7 C 16,1 km/h (3 Bft)
13.06.2013 22:10 12,9 C 92 % 1015,0 hPa 0,2 l/m 10,6 km/h (2 Bft) N-NW 329 0 min 0,000 mm 0,0 UV-I 0 W/m 11,6 C 10,5 C 24,1 km/h (4 Bft)
13.06.2013 22:15 12,9 C 92 % 1015,2 hPa 0,0 l/m 11,3 km/h (2 Bft) W 260 0 min 0,000 mm 0,0 UV-I 0 W/m 11,6 C 10,2 C 19,3 km/h (3 Bft)
13.06.2013 22:20 12,7 C 91 % 1015,2 hPa 0,2 l/m 12,5 km/h (3 Bft) NW 318 0 min 0,000 mm 0,0 UV-I 0 W/m 11,3 C 9,4 C 22,5 km/h (4 Bft)
13.06.2013 22:25 12,6 C 91 % 1015,4 hPa 0,0 l/m 11,0 km/h (2 Bft) W-NW 296 0 min 0,000 mm 0,0 UV-I 0 W/m 11,2 C 10,0 C 20,9 km/h (4 Bft)
13.06.2013 22:30 12,4 C 91 % 1015,4 hPa 0,0 l/m 11,9 km/h (2 Bft) W-SW 251 0 min 0,000 mm 0,0 UV-I 0 W/m 11,0 C 9,3 C 20,9 km/h (4 Bft)
13.06.2013 22:35 12,3 C 91 % 1015,4 hPa 0,2 l/m 11,8 km/h (2 Bft) W 269 0 min 0,000 mm 0,0 UV-I 0 W/m 10,9 C 9,3 C 24,1 km/h (4 Bft)
13.06.2013 22:40 12,3 C 91 % 1015,5 hPa 0,0 l/m 10,7 km/h (2 Bft) NW 307 0 min 0,000 mm 0,0 UV-I 0 W/m 10,9 C 9,8 C 20,9 km/h (4 Bft)
13.06.2013 22:45 12,2 C 91 % 1015,6 hPa 0,4 l/m 9,8 km/h (2 Bft) W-NW 286 0 min 0,000 mm 0,0 UV-I 0 W/m 10,8 C 10,1 C 22,5 km/h (4 Bft)
13.06.2013 22:50 12,1 C 91 % 1015,8 hPa 0,0 l/m 10,3 km/h (2 Bft) W-NW 285 0 min 0,000 mm 0,0 UV-I 0 W/m 10,7 C 9,8 C 20,9 km/h (4 Bft)
13.06.2013 22:55 12,1 C 91 % 1015,8 hPa 0,4 l/m 9,2 km/h (2 Bft) W-NW 286 0 min 0,000 mm 0,0 UV-I 0 W/m 10,7 C 10,3 C 16,1 km/h (3 Bft)
13.06.2013 23:00 11,9 C 91 % 1015,9 hPa 0,2 l/m 8,9 km/h (2 Bft) W 269 0 min 0,000 mm 0,0 UV-I 0 W/m 10,5 C 10,3 C 14,5 km/h (3 Bft)
13.06.2013 23:05 11,8 C 91 % 1016,0 hPa 0,2 l/m 9,5 km/h (2 Bft) W-NW 286 0 min 0,026 mm 0,0 UV-I 0 W/m 10,4 C 9,9 C 19,3 km/h (3 Bft)
13.06.2013 23:10 11,7 C 91 % 1016,2 hPa 0,2 l/m 10,7 km/h (2 Bft) W 275 0 min 0,000 mm 0,0 UV-I 0 W/m 10,3 C 9,1 C 17,7 km/h (3 Bft)
13.06.2013 23:15 11,7 C 91 % 1016,2 hPa 0,2 l/m 9,5 km/h (2 Bft) W 281 0 min 0,000 mm 0,0 UV-I 0 W/m 10,3 C 9,7 C 25,7 km/h (4 Bft)
13.06.2013 23:20 11,6 C 90 % 1016,1 hPa 0,2 l/m 6,7 km/h (2 Bft) W 275 0 min 0,000 mm 0,0 UV-I 0 W/m 10,0 C 11,4 C 16,1 km/h (3 Bft)
13.06.2013 23:25 11,4 C 90 % 1015,9 hPa 0,2 l/m 10,5 km/h (2 Bft) W-NW 298 0 min 0,000 mm 0,0 UV-I 0 W/m 9,8 C 8,9 C 22,5 km/h (4 Bft)
13.06.2013 23:30 11,3 C 90 % 1016,0 hPa 0,0 l/m 8,6 km/h (2 Bft) W 266 0 min 0,000 mm 0,0 UV-I 0 W/m 9,7 C 9,8 C 16,1 km/h (3 Bft)
13.06.2013 23:35 11,3 C 90 % 1016,3 hPa 0,2 l/m 8,1 km/h (2 Bft) W-NW 285 0 min 0,000 mm 0,0 UV-I 0 W/m 9,7 C 10,2 C 14,5 km/h (3 Bft)
13.06.2013 23:40 11,2 C 90 % 1016,6 hPa 0,0 l/m 9,0 km/h (2 Bft) W 260 0 min 0,000 mm 0,0 UV-I 0 W/m 9,6 C 9,5 C 16,1 km/h (3 Bft)
13.06.2013 23:45 11,1 C 90 % 1016,5 hPa 0,0 l/m 6,0 km/h (2 Bft) W-NW 300 0 min 0,000 mm 0,0 UV-I 0 W/m 9,5 C 11,1 C 12,9 km/h (3 Bft)
13.06.2013 23:50 11,1 C 91 % 1016,7 hPa 0,0 l/m 6,5 km/h (2 Bft) W 268 0 min 0,000 mm 0,0 UV-I 0 W/m 9,7 C 11,1 C 11,3 km/h (2 Bft)
13.06.2013 23:55 11,1 C 91 % 1016,6 hPa 0,0 l/m 5,0 km/h (1 Bft) W-NW 285 0 min 0,000 mm 0,0 UV-I 0 W/m 9,7 C 11,1 C 11,3 km/h (2 Bft)
_ Min-Zeit 23:45 14:45 18:05 - 00:05 - - - - - - 23:45 23:25 00:10
Minimum _ 11,1 C 47 % 1011,0 hPa - 0,0 km/h (0 Bft) - - - - - - 9,5 C 8,9 C 0,0 km/h (0 Bft)
_ Max-Zeit 14:45 21:45 00:05 20:20 20:10 - - 08:50 15:05 12:55 14:00 11:05 14:45 20:10
Maximum _ 27,3 C 93 % 1017,6 hPa 0,6 l/m 18,9 km/h
W-NW (3 Bft)
- - 5 min 0,635 mm 8,4 UV-I 1283 W/m 16,3 C 27,2 C 48,3 km/h
W-SW (6 Bft)
Durchschnitt _ 19,0 C 76 % 1014,8 hPa #7,4 l/m 5,7 km/h (1 Bft) W - #3:10 h #3,353 mm 3,3 UV-I 301 W/m 14,4 C 18,4 C 12,8 km/h (3 Bft)